Hourly Data Report for June 08, 2017

ATIKOKAN (AUT)
ONTARIO

48°45'40.000" N
91°37'41.000" W
389.30 m
6020LPQ
71747
WCH

Download Data

Hourly Data (June 2017)
Hourly Data Report for June 8, 2017
TIME
LST
Temp Definition
°C
Dew Point Definition
°C
Rel Hum Definition
%
Precip. Amount Definition
mm

Wind Dir Definition
10's deg

Wind Spd Definition
km/h
Visibility Definition
km
Stn Press Definition
kPa
Hmdx Definition


Wind Chill Definition


Weather Definition


00:00 16.5 14.8 90 2.6 30 4   96.89     LegendNANA
01:00 15.8 14.3 91 0.7 3 3   96.81     LegendNANA
02:00 15.3 14.0 92 0.0 0 1   96.77     LegendNANA
03:00 15.4 14.2 92 0.0 5 1   96.76     LegendNANA
04:00 15.3 14.1 92 0.0 0 1   96.73     LegendNANA
05:00 15.3 14.1 92 0.0 0 1   96.74     LegendNANA
06:00 15.9 14.4 91 0.0 32 2   96.74     LegendNANA
07:00 17.6 14.2 81 0.0 36 5   96.76     LegendNANA
08:00 17.8 14.4 81 0.0 1 7   96.76     LegendNANA
09:00 20.4 15.3 73 0.0 36 7   96.76 25   LegendNANA
10:00 21.7 12.6 56 0.0 4 13   96.73     LegendNANA
11:00 23.1 10.6 45 0.0 5 12   96.73 25   LegendNANA
12:00 23.8 9.2 40 0.0 5 14   96.68 25   LegendNANA
13:00 25.0 8.1 34 0.0 5 8   96.66 25   LegendNANA
14:00 23.7 7.3 35 0.0 3 7   96.64     LegendNANA
15:00 24.3 7.2 33 0.0 3 7   96.61     LegendNANA
16:00 23.8 6.2 32 0.0 4 10   96.59     LegendNANA
17:00 23.8 6.8 34 0.0 3 9   96.57     LegendNANA
18:00 23.2 7.7 37 0.0 4 7   96.55     LegendNANA
19:00 21.9 9.0 44 0.0 3 4   96.56     LegendNANA
20:00 17.8 9.4 58 0.0 3 2   96.57     LegendNANA
21:00 14.3 9.3 72 0.0   0   96.61     LegendNANA
22:00 12.9 10.6 86 0.0   0   96.63     LegendNANA
23:00 11.8 10.3 91 0.0   0   96.64     LegendNANA

Notes on Data Quality.

Legend

  • E = Estimated
  • M = Missing
  • NA = Not Available*
  • [empty] = Indicates an unobserved value
Date modified: